Find Starlink 11343

NORAD ID: 62017 Int'l Des: 2024-213 Owner: SPXS Country: US Constellation: starlink operational
LEOCIRCULAR

Live Position

Loading 3D Globe...

About Starlink 11343

Description loading...

Upcoming Passes

Passes for default location (London). Set your location on the main map for personalized predictions.

Altitude History

Loading altitude history...

Two-Line Element Set

1 62017U 24213K 26129.30283554 .00120067 00000-0 97953-3 0 9990
2 62017 53.1559 102.5750 0001320 123.3513 236.7631 15.69761243 84431
Epoch: May 9, 2026 • Age: 20 hours

Current Status

Altitude 363.4 km
Velocity 7.70 km/s
Sub-Earth Point 45.37°N, 131.43°W
Launch Date Nov 18, 2024
Age 1.4 years
Type internet

Technical Details

Classification Payload
Mass 960.00 kg
Dry Mass 910.00 kg
Total Mass 960.00 kg
Length 0.30 m
Diameter 4.10 m
Span 29.00 m
Shape Box + pan
Manufacturer SPXS
Bus Type Starlink V2MD
Phase Status In Orbit
Owner/State SPXS/US

Most Searched